Weather Roundup
Issued by NWS

Home | Current Version | Previous Version | Graphics & Text | Print | Product List | Glossary Off
Versions: 1 2 3 4 5 6 7 8 9 10 11 12 13 14 15 16 17 18 19 20 21 22 23 24 25 26 27 28 29 30 31 32 33 34 35 36 37 38 39 40 41 42 43 44 45 46 47 48 49 50

000
NZUS93 KARX 300010
HRRWXR

CURRENT HOURLY OBSERVATIONS ACROSS
MUCH OF THE UPPER MISSISSIPPI VALLEY
NATIONAL WEATHER SERVICE LA CROSSE WI
700 PM CDT FRI AUG 29 2014


...SOUTHEAST MINNESOTA...


CITY           SKY/WX    TMP DP  RH WIND       PRES   REMARKS
ROCHESTER      CLOUDY    75  68  78 W8        29.78R
ROCHESTER/MAYO CLOUDY    77  68  74 CALM      29.78R
WINONA         TSTM      70  66  88 SW5       29.77R
AUSTIN         CLOUDY    73  68  83 NW7       29.77S
ALBERT LEA     CLOUDY    73  70  88 W5        29.77R
DODGE CENTER   CLOUDY    73  70  88 W6        29.78R
PRESTON        TSTM      69  69 100 CALM      29.80S
OWATONNA       CLOUDY    73  70  88 CALM      29.76F
FARIBAULT      CLOUDY    79  68  69 SW3       29.76S
$$

...ELSEWHERE IN MINNESOTA...


CITY           SKY/WX    TMP DP  RH WIND       PRES   REMARKS
MINNEAPOLIS    CLOUDY    72  69  90 CALM      29.74S
INTNL FALLS    CLOUDY    68  63  84 CALM      29.76R
DULUTH         FOG       63  61  93 CALM      29.77R VSB 3/4
RED WING       CLOUDY    73  70  88 CALM      29.74S
REDWOOD FALLS  LGT RAIN  67  64  90 SW6       29.76S
MANKATO        CLOUDY    72  64  78 NW8G18    29.76R
WORTHINGTON    CLOUDY    70  68  94 CALM      29.81R
FAIRMONT       CLOUDY    70  64  83 NW6       29.77F
$$

...SOUTHWEST WISCONSIN...


CITY           SKY/WX    TMP DP  RH WIND       PRES   REMARKS
LA CROSSE      CLOUDY    76  65  68 W24G31    29.76S
PRAIRIE DU CHI CLOUDY    82  66  57 SE7       29.77R
BOSCOBEL       MOCLDY    84  68  58 S6        29.78R
LONE ROCK      PTCLDY    85  72  65 SE9       29.79S HX  91
PLATTEVILLE    PTCLDY    80  72  76 SE7       29.82S
FORT MC COY    MOCLDY    81  67  63 S6        29.78R
CAMP DOUGLAS   PTCLDY    81  73  77 S3        29.78F
VIROQUA        MOCLDY    79  70  73 SE7       29.80R
WIS DELLS      CLEAR     80  68  67 S6        29.81S
$$

...ELSEWHERE IN WISCONSIN...


CITY           SKY/WX    TMP DP  RH WIND       PRES   REMARKS
MILWAUKEE      PTCLDY    77  70  79 S14       29.86F
MADISON        PTCLDY    82  69  64 S12       29.82S
GREEN BAY      PTCLDY    78  72  81 SE13      29.81F
EAU CLAIRE     CLOUDY    71  69  93 S6        29.78R
BLACK RVR FLS  CLOUDY    73  63  69 NW7       29.78R
MEDFORD        CLOUDY    66  64  94 NW8       29.85R
WAUSAU         TSTM      74  69  85 SW26G40   29.80R
WIS RAPIDS     PTCLDY    80  71  74 S6        29.80F
MARSHFIELD     PTCLDY    74  65  73 E5        29.79S
RICE LAKE      RAIN      68  66  93 CALM      29.77F
$$

...NORTHEAST IOWA...


CITY           SKY/WX    TMP DP  RH WIND       PRES   REMARKS
WATERLOO       CLOUDY    70  66  87 S3        29.76S
DUBUQUE        MOCLDY    78  71  79 S9        29.81S
DECORAH        CLOUDY    73  64  73 CALM      29.78S
MASON CITY     CLOUDY    72  65  78 NW3       29.79R
CHARLES CITY   CLOUDY    70  68  94 S14       29.79R
OELWEIN        CLOUDY    68  66  94 S10       29.80F
$$

...ELSEWHERE IN IOWA...


CITY           SKY/WX    TMP DP  RH WIND       PRES   REMARKS
DES MOINES     CLOUDY    72  68  87 SW6       29.77F
IOWA CITY      CLOUDY    72  68  87 W8        29.81S
FORT DODGE     CLOUDY    75  70  83 S6        29.78R
MARSHALLTOWN   CLOUDY    69  68  96 S5        29.77F
CEDAR RAPIDS   CLOUDY    69  69 100 W5        29.79F
$$

...NORTHERN ILLINOIS...


CITY           SKY/WX    TMP DP  RH WIND       PRES   REMARKS
CHICAGO-OHARE  MOCLDY    82  70  66 S14       29.88S
DUPAGE         PTCLDY    80  73  79 S8        29.87F HAZE
CHICAGO-MIDWAY MOCLDY    83  73  72 SE10G21   29.89S
MOLINE         CLOUDY    80  71  74 SE6       29.81S
ROCKFORD       PTCLDY    80  71  74 S8        29.86F
STERLING       CLEAR     81  72  74 S5        29.83F
PEORIA         PTCLDY    75  71  87 CALM      29.86R FOG
$$

NOTE: "FAIR" INDICATES FEW OR NO CLOUDS BELOW 12,000 FEET WITH NO
SIGNIFICANT WEATHER AND/OR OBSTRUCTIONS TO VISIBILITY. WIND
SPEEDS ARE IN MILES-PER-HOUR.



USA.gov is the U.S. government's official web portal to all federal, state and local government web resources and services.